NOAA 16 DEB

Satellite information

Favourite Embed

Satellite Type and Status

DEBRISDECAYED

Key statistics

Satellite NOAA 16 DEB at a glance.

Uptime

9021

Days in orbit

Revolutions

≈ 14.5

Per day

Orbit

SSO

Sun Synchronous Orbit

Inclination

99.0

Latest

Satellite identification and parameters

Extended collection of information and parameters for NOAA 16 DEB.

Object identification

Identified? True

Debris? True

Object name: NOAA 16 DEB

International designator: 2000-055FD

Object number (NORAD): 41253

Object ID (CCSDS): 41253

Country: UNITED STATES OF AMERICA (US)

Current information (Y/N): Y

RCS size: SMALL

Orbital parameters

Decay date: June 3, 2025

Period: 99.283 minutes

Inclination: 99.0186 deg

SMA: 7102.497 km

Apoapsis: 759.036 km

Periapsis: 689.688 km

RAAN: 35.608 deg

Eccentricy: 0.004882

Argument of periapsis: 128.433 deg

Mean anomaly: 232.126 deg

Mean motion: 14.50394607 rev/day

Mean motion (dot): 0.00011168 rev/day2

B* drag term: 0.0028253 1/REarth

Two-line elements (TLE)

Creation date: June 2, 2025, 7:16 a.m.

Reference frame: TEME

Reference center: EARTH

Epoch: June 2, 2025, 3:08 a.m. UTC

TLE line 0: 0 NOAA 16 DEB

TLE line 1: 1 41253U 00055FD 25153.13058942 .00011168 00000-0 28253-2 0 9992

TLE line 2: 2 41253 99.0186 35.6080 0048820 128.4330 232.1260 14.50394607491161

Live tracking on map

Satellite NOAA 16 DEB has decayed and is no longer in orbit. No tracking available.

In-orbit conjunctions

Satellite NOAA 16 DEB has decayed and is no longer in orbit. No conjunctions available.

Associated space launch

The NOAA K, L and M POES satellites begin the fifth generation of improved environmental monitoring in support of NOAA missions. The instrument payload has significant improvements and additions/deletions. The instrument changes have effected the spacecraft subsystems and data formats.

NOAA 16 DEB was lifted into orbit during the mission ‘Titan II SLV | NOAA 16’, on board a Titan II SLV space rocket.

The launch took place on Sept. 21, 2000, 10:22 a.m. from Space Launch Complex 4W.

For more information about the launch, click the button.

Launch to space Titan II SLV | NOAA 16
Titan II SLV | NOAA 16

Agency: N/A

Status: Launch Successful

Launch date: Sept. 21, 2000, 10:22 a.m. UTC

Rocket: Titan II SLV

Launch pad: Space Launch Complex 4W

Location: Vandenberg SFB, CA, USA

...

Latest news about this satellite

There are no fresh news available about this satellite. Check back as we update our databases every day.


Newsletter sign-up

Weekly statistics, charts and insights to help you stay on top of the space industry.